Temp
17 16 16 15 15 14 14 14 13 13 13 13 14 14 14 14 14 14 14 13 14 16 16 16 18 20 21 20 21 23 22 22
17 17 16 15 15 14 14 14 13 13 12 12 13 13 13 13 14 13 13 13 13 14 14 15 16 17 18 18 18 20 22 22
17 17 16 15 15 14 14 14 13 13 12 12 12 12 12 12 13 13 12 13 13 12 13 14 14 14 15 17 18 16 20 22
16 17 17 15 15 14 14 14 13 13 12 12 11 11 11 12 12 12 12 12 12 12 12 12 13 13 14 15 15 18 15 18
16 16 17 15 14 14 14 14 13 12 12 12 11 11 11 11 11 11 12 11 11 11 11 11 11 12 12 13 14 15 15 15
14 16 16 14 14 14 14 14 13 13 12 11 11 11 11 11 11 11 11 11 11 11 10 11 10 11 11 12 12 14 15 15
16 16 16 15 15 14 13 13 13 12 12 11 11 10 10 10 10 10 10 10 10 10 10 10 10 10 10 11 11 12 13 14
14 15 15 15 15 14 13 13 13 12 12 11 11 10 10 10 10 10 10 10 9 10 10 9 9 9 9 10 10 10 11 12
14 15 14 14 14 14 13 13 13 12 12 11 11 10 10 9 9 9 9 9 9 9 9 9 8 9 8 8 9 8 9 9
14 15 14 15 14 14 14 13 13 12 12 11 11 10 10 9 9 9 9 9 9 9 9 9 8 8 8 8 7 7 7 8
14 15 15 15 15 14 14 13 13 12 12 11 11 10 10 9 9 9 8 8 8 8 9 8 8 7 7 6 7 6 6 7
14 15 15 15 15 14 14 13 13 12 12 11 11 10 10 9 9 8 8 8 8 8 8 8 8 7 7 6 5 5 5 6
15 15 15 15 15 14 14 14 13 12 12 11 11 10 9 9 9 8 8 8 8 8 8 7 7 7 7 6 5 5 5 5
14 15 15 15 14 14 14 14 13 12 12 11 10 10 10 9 9 8 8 8 8 8 7 7 7 7 7 6 5 5 5 5
13 14 14 15 14 14 14 14 13 12 12 11 10 10 10 9 9 8 8 8 8 7 7 7 7 7 6 6 5 5 5 5
13 13 14 15 14 14 14 13 13 12 11 11 11 10 10 9 9 8 8 8 8 7 7 6 6 6 6 6 5 4 4 4
14 15 15 15 15 14 13 13 13 12 12 11 11 10 10 9 9 8 8 8 7 7 7 6 6 6 6 5 4 3 3 3
13 15 15 14 14 14 14 13 13 12 12 11 11 10 10 9 8 8 7 7 7 6 6 6 6 5 4 4 3 2 2 2
12 13 14 14 14 14 14 13 13 12 12 11 11 10 9 9 8 7 7 7 6 6 6 6 5 5 4 3 2 2 2 1
Height
913 913 913 912 911 908 906 903 900 898 894 890 887 884 882 882 881 879 876 872 868 864 863 861 864 867 866 866 866 865 865 867
914 913 912 912 911 909 908 905 903 900 897 894 890 887 885 883 883 882 878 875 871 866 863 860 860 867 863 863 864 865 861 863
916 915 914 911 910 909 907 907 906 904 902 899 896 892 889 887 885 883 880 877 874 870 868 864 865 866 860 859 862 862 862 860
916 916 915 914 911 910 909 909 908 906 904 901 898 894 889 886 885 883 881 879 877 874 870 865 861 860 858 858 859 856 860 860
916 916 915 914 913 911 910 909 908 907 905 903 900 898 894 891 889 887 884 881 879 876 872 868 865 862 859 855 856 853 855 861
917 917 916 916 914 912 911 910 909 907 906 904 902 900 897 893 890 887 884 882 879 876 873 870 867 863 859 856 852 849 849 849
918 918 917 917 915 913 912 911 910 908 906 906 904 901 898 895 891 887 885 882 878 876 873 868 866 863 859 855 851 848 846 845
919 917 917 916 915 913 912 911 910 908 907 906 904 903 900 897 892 888 885 882 878 874 872 868 865 862 858 855 851 848 843 840
918 918 917 916 915 914 912 911 910 909 908 908 907 905 901 898 894 890 887 884 880 876 872 869 864 860 858 854 850 849 846 841
918 918 918 916 915 914 912 911 910 909 908 908 906 904 901 897 893 890 886 883 881 877 872 868 864 860 856 853 849 846 843 838
915 915 915 915 914 913 911 910 909 908 907 906 904 901 899 897 894 890 887 883 880 877 872 868 863 859 856 853 847 842 838 834
913 913 912 912 912 911 910 908 907 905 904 902 902 900 898 895 893 890 887 883 880 877 874 869 864 860 856 852 849 843 836 831
908 908 908 908 908 908 907 906 904 902 900 899 899 899 896 894 891 888 885 882 879 877 873 870 865 860 856 852 849 845 839 834
904 903 903 903 903 902 902 901 900 899 897 896 895 895 894 891 889 886 883 880 877 874 871 868 866 861 856 852 849 845 841 836
899 898 898 898 898 897 897 897 896 895 894 892 891 891 890 888 886 884 880 877 875 871 868 865 863 861 857 852 848 844 840 837
895 894 894 893 892 892 892 891 891 890 888 887 886 885 884 883 882 880 878 875 871 868 865 862 860 857 855 853 848 843 839 835
891 890 890 889 888 888 887 886 886 885 882 881 880 880 878 877 876 874 873 871 868 864 861 858 856 853 851 850 847 843 839 835
888 886 885 885 885 884 882 880 880 879 877 875 874 873 871 870 870 869 867 865 863 861 858 854 852 850 848 846 844 841 837 834
892 889 887 885 882 879 876 874 872 870 870 869 867 866 865 864 863 863 862 861 859 856 855 852 849 846 844 842 840 837 834 830
Wind_Speed
19 18 19 21 24 25 28 27 30 31 30 31 28 30 30 24 30 33 34 32 24 24 15 15 19 22 21 19 22 25 25 24
14 16 15 19 21 24 26 24 28 34 32 31 31 31 29 28 30 28 29 32 30 25 22 13 29 35 22 26 29 26 27 26
16 17 12 18 19 22 24 24 24 28 29 29 25 24 24 27 28 28 24 27 28 28 27 22 11 21 31 33 31 29 28 27
8 12 16 13 18 20 20 22 21 25 27 27 26 24 25 29 31 30 30 25 26 24 30 28 26 16 16 22 29 29 26 33
13 16 17 12 16 18 20 21 18 22 25 26 25 27 23 26 26 25 26 29 25 24 26 29 25 24 20 18 18 30 31 34
13 17 16 14 14 16 17 18 17 20 23 23 23 25 24 24 25 25 26 27 28 27 29 27 26 23 25 24 20 15 27 30
12 11 14 13 14 14 15 16 18 18 21 22 21 23 23 24 26 26 26 27 29 28 30 29 28 26 24 24 26 20 16 27
6 10 9 13 11 8 12 13 16 18 21 22 19 21 20 21 23 24 25 26 28 30 30 27 30 26 24 21 23 22 21 18
6 9 10 10 10 4 9 9 11 14 17 17 16 20 20 19 20 21 22 23 23 26 26 24 28 23 23 25 29 26 24 19
6 6 4 6 6 2 5 5 7 10 14 16 15 17 18 19 20 20 21 22 22 23 24 24 27 23 23 27 27 25 26 24
2 2 4 6 7 6 4 1 4 6 10 14 17 17 16 18 19 19 20 21 21 22 22 24 24 23 22 25 25 26 27 24
2 2 2 3 6 7 4 4 5 4 8 12 16 15 16 17 18 19 19 20 20 21 20 21 23 22 23 23 23 28 30 27
6 3 3 2 4 5 7 9 7 5 7 9 13 15 16 17 17 18 20 20 19 19 19 19 19 22 22 21 24 30 31 25
6 6 9 7 5 6 9 12 11 7 6 9 13 15 16 16 16 17 20 19 18 19 18 18 17 19 23 20 23 29 32 21
8 12 13 11 9 8 7 7 9 5 7 9 12 14 17 15 15 16 18 18 17 19 18 18 16 17 16 20 23 28 31 22
6 9 9 11 12 10 7 7 7 10 8 9 12 15 16 13 14 16 16 17 16 18 19 19 17 17 17 15 21 26 28 24
5 7 13 13 10 7 8 9 11 14 12 11 11 16 14 13 15 16 16 17 17 18 18 19 19 17 19 18 19 22 25 23
8 11 13 9 6 12 15 15 15 16 16 14 13 15 15 15 17 17 18 16 18 18 19 20 15 16 18 23 17 19 19 21
16 21 21 19 20 19 21 20 20 20 18 17 16 17 15 15 18 18 19 17 19 18 19 15 17 19 22 22 17 19 21 19
Wind_Direction
74 64 62 51 39 32 28 30 25 26 26 17 21 23 23 19 17 18 13 11 0 8 322 288 288 273 274 299 272 248 242 247
65 60 76 60 50 40 28 28 25 21 23 18 19 14 17 20 20 16 17 15 16 14 5 306 257 271 282 300 303 277 237 238
31 25 46 61 52 41 32 27 31 27 22 20 21 17 20 16 19 17 26 17 13 14 14 4 324 284 278 280 291 296 289 247
40 27 8 64 59 50 40 28 28 30 22 19 18 18 21 15 13 13 6 15 15 11 5 5 358 340 342 266 266 264 303 295
43 25 13 75 60 46 36 29 32 29 22 21 21 18 12 9 12 10 10 7 10 13 6 2 5 6 358 342 287 267 266 284
41 26 11 81 61 50 39 28 26 25 22 21 19 16 14 12 11 8 12 5 4 8 0 358 4 357 359 352 340 329 266 264
28 33 28 39 40 43 38 26 20 24 20 13 17 16 9 7 5 7 5 1 357 3 2 358 354 358 359 344 350 350 348 256
32 31 35 30 17 58 44 27 23 21 15 8 9 11 10 7 2 2 2 0 355 353 354 357 354 352 1 3 3 355 349 350
63 40 56 13 348 72 36 24 21 14 11 7 3 2 3 4 2 1 360 357 355 348 350 355 358 358 357 2 358 358 357 348
72 43 72 21 342 55 28 18 16 8 7 358 358 1 1 1 360 356 355 352 354 349 352 351 357 1 354 357 0 352 351 355
59 63 25 356 340 330 332 358 1 356 0 358 355 354 355 355 354 354 352 350 350 351 350 343 351 357 354 359 357 355 359 358
262 248 247 278 307 318 336 312 328 337 353 352 350 345 348 347 348 348 348 347 347 348 351 346 347 351 348 353 0 352 355 356
213 263 249 288 304 329 331 324 297 291 326 333 341 337 339 339 340 340 341 344 345 345 346 350 344 345 344 350 355 358 358 353
213 251 235 226 232 277 288 285 281 267 307 321 332 327 329 332 334 333 336 338 341 343 343 345 348 342 337 342 351 354 357 356
235 256 245 221 234 249 267 301 298 256 289 310 322 316 316 321 325 327 328 333 331 338 337 342 339 343 335 338 344 350 353 357
257 256 250 235 238 241 236 277 266 273 249 290 296 304 303 307 317 322 321 322 322 331 329 339 340 336 334 333 343 347 349 352
267 297 298 272 269 234 257 262 276 266 248 266 281 291 286 296 309 314 315 315 320 324 326 332 333 339 340 346 352 348 348 349
275 267 282 273 271 279 270 260 263 260 259 255 271 265 269 282 299 304 308 308 319 321 323 325 330 340 343 343 346 348 353 346
346 346 337 322 309 289 289 273 261 255 250 254 264 252 250 272 292 295 300 306 312 313 319 317 324 327 332 331 338 345 343 344